Flag for U.S.A. Weather past 2 weeks in Missoula, Montana, U.S.A.

Now
75 °F

Overcast.


Feels Like: 77 °F
Forecast: 54 / 86 °F
Wind: No wind

Location: Missoula International Airport

Current Time: Aug 29, 2015 at 3:05:26 PM

Latest Report: Aug 29, 2015 at 1:53 PM


Visibility: 2 mi

Pressure: 29.73 "Hg (26.59 "Hg at 971m altitude)

Humidity: 36%

Dew point: 46 °F

Location of MissoulaLocation

Historic Weather in Missoula — Graph

°F

Missoula temperature yesterday

Maximum temperature yesterday: 76 °F (at 5:53 PM)
Minimum temperature yesterday: 51 °F (at 5:53 AM)
Average temperature yesterday: 65 °F

Past Weeks' High & Low Weather Summary

 TemperatureHumidityPressure
High95 °F (Aug 14, 1:53 PM)77% (Aug 16, 4:53 AM)30.24 "Hg (Aug 16, 4:53 AM)
Low39 °F (Aug 23, 6:53 AM)13% (Aug 20, 4:53 PM)29.68 "Hg (Aug 21, 1:53 PM)
Average65 °F42%29.98 "Hg
* Reported Aug 14 1:53 PM — Aug 29 1:53 PM, Missoula, Weather by CustomWeather, © 2015

Note: Actual official high and low records may vary slightly from our data, if they occured in-between our weather recording intervals... More about our weather records

Advertising

Missoula weather history for previous 24 hours

 ConditionsComfort  
Time TempWeatherWind HumidityBarometerVisibility
1:53 PM
Sat, Aug 29
75 °FOvercast.No wind36%29.73 "Hg2 mi
12:53 PM66 °FOvercast.5 mph54%29.78 "Hg1 mi
11:53 AM63 °FThunderstorms. Partly sunny.6 mph56%29.82 "Hg1 mi
11:00 AM63 °FMore clouds than sun.10 mph56%29.87 "Hg2 mi
10:01 AM60 °FPartly sunny.9 mph58%29.90 "Hg2 mi
8:53 AM58 °FOvercast.No wind65%29.82 "Hg2 mi
7:53 AM55 °FPartly sunny.3 mph74%29.83 "Hg1 mi
6:53 AM55 °FOvercast.5 mph74%29.82 "Hg2 mi
5:53 AM59 °FOvercast.3 mph67%29.83 "Hg2 mi
4:53 AM62 °FPassing clouds.No wind60%29.85 "Hg2 mi
3:53 AM58 °FPassing clouds.3 mph72%29.87 "Hg2 mi
2:53 AM64 °FOvercast.8 mph58%29.88 "Hg3 mi
12:53 AM63 °FPassing clouds.N/A60%29.91 "Hg2 mi
11:53 PM
Fri, Aug 28
64 °FOvercast.9 mph61%29.93 "Hg3 mi
10:53 PM65 °FOvercast.6 mph56%29.96 "Hg3 mi
9:53 PM68 °FOvercast.No wind53%29.97 "Hg3 mi
8:53 PM71 °FOvercast.7 mph41%29.96 "Hg3 mi
7:53 PM75 °FPartly sunny.3 mph30%29.95 "Hg2 mi
6:53 PM75 °FCloudy.7 mph32%29.98 "Hg2 mi
5:53 PM76 °FPartly sunny.5 mph30%29.96 "Hg2 mi
4:53 PM75 °FMostly cloudy.No wind34%29.96 "Hg1 mi
3:53 PM75 °FOvercast.7 mph37%29.93 "Hg1 mi
3:01 PM75 °FOvercast.7 mph34%29.98 "Hg1 mi
Weather by CustomWeather, © 2015

See weather overviewHow to use our weather pages